Weather History for Bozeman, MT

Change the Weather History Date:

Wednesday, December 26, 2012

  Actual Average Record
Temperature  
Mean Temperature 14 °F 21 °F  
Max Temperature 20 °F 33 °F 60 °F (1980)
Min Temperature 7 °F 8 °F -27 °F (1996)
Degree Days  
Heating Degree Days 51    
Month to date heating degree days 1076  
Since 1 July heating degree days 2972  
Cooling Degree Days 0    
Month to date cooling degree days 0  
Year to date cooling degree days 284  
Moisture  
Dew Point 8 °F    
Average Humidity 75    
Maximum Humidity 83    
Minimum Humidity 67    
Precipitation  
Precipitation T in 0.01 in 0.32 in (1971)
Month to date precipitation 0.70 0.44  
Year to date precipitation 9.35 13.91  
Snow  
Snow 0.00 in 0.10 in 4.00 in (1960)
Month to date snowfall 4.1 5.2  
Since 1 July snowfall 14.6 12.6  
Snow Depth -    
Sea Level Pressure  
Sea Level Pressure 29.92 in    
Wind  
Wind Speed 1 mph (South)    
Max Wind Speed 8 mph    
Max Gust Speed 9 mph    
Visibility 8 miles    
Events Snow    
T = Trace of Precipitation, MM = Missing Value Source: NWS Daily Summary

Daily Weather History Graph

Daily Weather History Graph

Search for Another Location

Airport:

Trip Planner

Search our weather history database for the weather conditions in past years. The results will help you decide how hot, cold, wet, or windy it might be!

Date:

Astronomy

Dec. 26, 2012 Rise Set
Actual Time 8:04 AM MST 4:46 PM MST
Civil Twilight 7:30 AM MST 5:20 PM MST
Nautical Twilight 6:52 AM MST 5:58 PM MST
Astronomical Twilight 6:16 AM MST 6:34 PM MST
Moon 3:44 PM MST 6:29 AM MST
Length of Visible Light 9h 50m
Length of Day
8h 41m
Waxing Gibbous, 98% of the Moon is Illuminated
Dec 26
Waxing Gibbous
Dec 28
Full
Jan 4
Last Quarter
Jan 11
New
Jan 18
First Quarter

Hourly Weather History & Observations

Time (MST) Temp. Windchill Dew Point Humidity Pressure Visibility Wind Dir Wind Speed Gust Speed Precip Events Conditions
12:56 AM 9.0 °F - 3.0 °F 77% 30.04 in 7.0 mi Calm Calm - N/A   Overcast
1:56 AM 10.4 °F - 3.2 °F 73% 29.80 in 7.0 mi Calm Calm - N/A   Overcast
2:56 AM 10.0 °F - 3.9 °F 76% 30.01 in 9.0 mi Calm Calm - N/A   Overcast
3:56 AM 12.2 °F - 5.0 °F 73% 29.77 in 8.0 mi Calm Calm - N/A   Overcast
4:56 AM 10.4 °F - 5.0 °F 79% 29.76 in 8.0 mi Calm Calm - N/A   Overcast
5:56 AM 9.0 °F 2.4 °F 5.0 °F 84% 29.98 in 7.0 mi SE 3.5 mph - N/A   Overcast
6:56 AM 9.0 °F - 5.0 °F 84% 29.97 in 7.0 mi Calm Calm - N/A   Overcast
7:56 AM 9.0 °F - 5.0 °F 84% 29.98 in 7.0 mi Calm Calm - N/A   Overcast
8:56 AM 10.0 °F 3.6 °F 5.0 °F 80% 29.98 in 5.0 mi South 3.5 mph - N/A   Haze
9:56 AM 10.0 °F 1.8 °F 6.1 °F 84% 29.97 in 7.0 mi SSW 4.6 mph - N/A   Scattered Clouds
10:56 AM 15.1 °F - 8.1 °F 74% 29.96 in 5.0 mi Calm Calm - N/A   Haze
11:56 AM 15.1 °F - 8.1 °F 74% 29.93 in 7.0 mi Calm Calm - N/A   Mostly Cloudy
12:56 PM 17.1 °F - 9.0 °F 71% 29.90 in 9.0 mi Calm Calm - N/A   Overcast
1:56 PM 19.0 °F - 10.0 °F 68% 29.87 in 7.0 mi Calm Calm - N/A   Mostly Cloudy
2:56 PM 19.0 °F - 10.9 °F 71% 29.86 in 10.0 mi Calm Calm - N/A   Overcast
3:56 PM 18.0 °F - 10.0 °F 71% 29.87 in 10.0 mi Calm Calm - N/A   Overcast
4:56 PM 16.0 °F - 10.0 °F 77% 29.89 in 10.0 mi Calm Calm - N/A   Overcast
5:56 PM 16.0 °F - 10.0 °F 77% 29.91 in 10.0 mi Calm Calm - N/A   Overcast
6:56 PM 17.1 °F - 10.9 °F 77% 29.91 in 10.0 mi Calm Calm - N/A   Overcast
7:56 PM 17.1 °F - 12.0 °F 81% 29.92 in 10.0 mi Calm Calm - N/A   Overcast
8:56 PM 18.0 °F - 12.0 °F 78% 29.92 in 9.0 mi Calm Calm - N/A   Overcast
9:56 PM 19.0 °F 13.9 °F 12.9 °F 77% 29.94 in 6.0 mi SSW 3.5 mph - N/A   Haze
10:56 PM 19.0 °F - 12.9 °F 77% 29.94 in 6.0 mi Calm Calm - 0.00 in Snow Light Snow
11:56 PM 19.0 °F - 14.0 °F 81% 29.94 in 5.0 mi Calm Calm - 0.00 in   Haze